Home > Weather > Cumberland > Past weeks

Flag for USA Past Weather in Cumberland, Maryland, USA — Yesterday and Last 2 Weeks

Now
70 °F

Clear.


Feels Like: 71 °F
Forecast: 61 / 86 °F
Wind: 3 mph from East

Location: Eastern West Virginia Regional Airport

Current Time: May 30, 2016 at 10:28:09 PM

Latest Report: May 30, 2016 at 9:53 PM


Visibility: 10 mi

Pressure: 29.96 "Hg

Humidity: 79%

Dew Point: 63 °F

Location of CumberlandLocation

Past Weather in Cumberland — Graph

°F

Cumberland Temperature Yesterday

Maximum temperature yesterday: 83 °F (at 12:53 PM)
Minimum temperature yesterday: 60 °F (at 4:53 AM)
Average temperature yesterday: 71 °F

High & Low Weather Summary for the Past Weeks

 TemperatureHumidityPressure
High88 °F (May 27, 3:53 PM)100% (May 23, 6:53 AM)30.28 "Hg (May 23, 6:53 AM)
Low36 °F (May 16, 12:53 AM)26% (May 16, 4:53 PM)29.85 "Hg (May 22, 3:53 AM)
Average63 °F72%30.07 "Hg
* Reported May 15 8:53 PM — May 30 8:53 PM, Cumberland, Weather by CustomWeather, © 2016

Note: Actual official high and low records may vary slightly from our data, if they occured in-between our weather recording intervals... More about our weather records

Advertising

Cumberland Weather History for the Previous 24 Hours

Scroll right to see more
 ConditionsComfort  
Time TempWeatherWind HumidityBarometerVisibility
8:53 PM
Mon, May 30
71 °FScattered clouds.6 mph76%29.93 "Hg10 mi
7:53 PM73 °FPartly sunny.12 mph69%29.94 "Hg10 mi
6:53 PM79 °FPartly sunny.5 mph58%29.92 "Hg10 mi
5:53 PM82 °FSunny.3 mph51%29.91 "Hg10 mi
4:53 PM83 °FSunny.No wind48%29.91 "Hg10 mi
3:53 PM82 °FSunny.6 mph49%29.93 "Hg10 mi
2:53 PM82 °FSunny.7 mph49%29.94 "Hg10 mi
1:53 PM81 °FSunny.No wind51%29.96 "Hg10 mi
12:53 PM80 °FSunny.No wind54%29.98 "Hg10 mi
11:53 AM77 °FSunny.3 mph62%29.99 "Hg10 mi
10:53 AM73 °FSunny.No wind74%30.01 "Hg10 mi
9:53 AM69 °FSunny.5 mph81%30.02 "Hg10 mi
9:00 AM66 °FMore clouds than sun.No wind90%30.04 "Hg10 mi
7:53 AM64 °FScattered clouds.No wind94%30.03 "Hg7 mi
6:53 AM63 °FFog.3 mph97%30.02 "Hg4 mi
5:53 AM63 °FFog.No wind97%30.01 "Hg5 mi
4:53 AM64 °FFog.3 mph97%30.00 "Hg4 mi
3:53 AM64 °FLow clouds.5 mph97%30.02 "Hg8 mi
2:53 AM65 °FLight rain. Fog.No wind97%30.02 "Hg4 mi
1:53 AM65 °FLight rain. Fog.No wind97%30.03 "Hg6 mi
12:53 AM66 °FLight rain. Mostly cloudy.3 mph93%30.04 "Hg7 mi
11:53 PM
Sun, May 29
66 °FLight rain. Partly cloudy.3 mph93%30.04 "Hg9 mi
10:53 PM67 °FLight rain. Mostly cloudy.6 mph93%30.05 "Hg7 mi
Weather by CustomWeather, © 2016

See weather overviewHow to use our weather pages